| time (UTC) | temp F | wind direction | speed knots | gust knots | rain 1hr in | rain 24hr in | rain mn in | humidity % | barometer mb |
| 20260507203115 | 68 | 182 | 5.2 | 12.2 | 0.00 | 0.00 | 0.00 | 75 | 1016.1 |
| 20260507201553 | 68 | 271 | 5.2 | 13.9 | 0.00 | 0.00 | 0.00 | 73 | 1016.2 |
| 20260507200057 | 68 | 360 | 6.1 | 10.4 | 0.00 | 0.00 | 0.00 | 74 | 1016.1 |
| 20260507194601 | 68 | 206 | 5.2 | 12.2 | 0.00 | 0.00 | 0.00 | 73 | 1016.2 |
| 20260507193052 | 68 | 259 | 4.3 | 10.4 | 0.00 | 0.00 | 0.00 | 73 | 1016.3 |
| 20260507191550 | 68 | 209 | 4.3 | 11.3 | 0.00 | 0.00 | 0.00 | 72 | 1016.5 |
| 20260507184558 | 67 | 246 | 5.2 | 12.2 | 0.00 | 0.00 | 0.00 | 74 | 1016.8 |
| 20260507183058 | 67 | 360 | 5.2 | 10.4 | 0.00 | 0.00 | 0.00 | 74 | 1017.0 |
| 20260507181552 | 68 | 220 | 5.2 | 10.4 | 0.00 | 0.00 | 0.00 | 75 | 1017.0 |
| 20260507180053 | 68 | 252 | 5.2 | 9.6 | 0.00 | 0.00 | 0.00 | 74 | 1017.0 |
| 20260507174551 | 68 | 211 | 2.6 | 7.8 | 0.00 | 0.00 | 0.00 | 73 | 1017.2 |
| 20260507173128 | 68 | 360 | 3.5 | 7.8 | 0.00 | 0.00 | 0.00 | 74 | 1017.2 |
| 20260507171548 | 66 | 241 | 3.5 | 9.6 | 0.00 | 0.00 | 0.00 | 75 | 1017.1 |
| 20260507170050 | 67 | 263 | 2.6 | 9.6 | 0.00 | 0.00 | 0.00 | 75 | 1017.2 |
| 20260507164551 | 66 | 247 | 2.6 | 7.0 | 0.00 | 0.00 | 0.00 | 76 | 1017.2 |
| 20260507163050 | 66 | 241 | 3.5 | 7.0 | 0.00 | 0.00 | 0.00 | 78 | 1017.4 |
| 20260507161554 | 65 | 249 | 2.6 | 6.1 | 0.00 | 0.00 | 0.00 | 77 | 1017.2 |
| 20260507160104 | 65 | 221 | 1.7 | 5.2 | 0.00 | 0.00 | 0.00 | 77 | 1017.4 |
| 20260507154558 | 65 | 153 | 2.6 | 6.1 | 0.00 | 0.00 | 0.00 | 78 | 1017.4 |
| 20260507153059 | 62 | 221 | 1.7 | 6.1 | 0.00 | 0.00 | 0.00 | 80 | 1017.4 |
| 20260507151555 | 63 | 149 | 1.7 | 7.0 | 0.00 | 0.00 | 0.00 | 80 | 1017.4 |
| 20260507150057 | 62 | 152 | 0.9 | 5.2 | 0.00 | 0.00 | 0.00 | 81 | 1017.3 |
| 20260507144608 | 62 | 157 | 0.9 | 4.3 | 0.00 | 0.00 | 0.00 | 83 | 1017.2 |
| 20260507143101 | 60 | 148 | 2.6 | 5.2 | 0.00 | 0.00 | 0.00 | 86 | 1017.0 |
| 20260507141600 | 59 | 155 | 0.9 | 4.3 | 0.00 | 0.00 | 0.00 | 87 | 1016.9 |
| 20260507140049 | 58 | 153 | 1.7 | 5.2 | 0.00 | 0.00 | 0.00 | 87 | 1016.8 |
| 20260507134556 | 59 | 116 | 1.7 | 3.5 | 0.00 | 0.00 | 0.00 | 86 | 1016.7 |
| 20260507133137 | 58 | 116 | 1.7 | 5.2 | 0.00 | 0.00 | 0.00 | 89 | 1016.6 |
| 20260507131558 | 56 | 125 | 1.7 | 5.2 | 0.00 | 0.00 | 0.00 | 89 | 1016.5 |
| 20260507124556 | 56 | 121 | 1.7 | 5.2 | 0.00 | 0.00 | 0.00 | 88 | 1016.3 |
| 20260507123053 | 56 | 123 | 0.9 | 2.6 | 0.00 | 0.00 | 0.00 | 88 | 1016.3 |
| 20260507121553 | 56 | 123 | 0.9 | 3.5 | 0.00 | 0.00 | 0.00 | 88 | 1016.2 |
| 20260507120052 | 56 | 123 | 1.7 | 3.5 | 0.00 | 0.00 | 0.00 | 88 | 1016.3 |
| 20260507114609 | 57 | 139 | 1.7 | 3.5 | 0.00 | 0.00 | 0.00 | 88 | 1016.3 |
| 20260507113058 | 57 | 0 | 0.9 | 2.6 | 0.00 | 0.00 | 0.00 | 88 | 1016.4 |
| 20260507111555 | 57 | 140 | 0.9 | 1.7 | 0.00 | 0.00 | 0.00 | 88 | 1016.4 |
| 20260507110054 | 56 | 0 | 0.0 | 1.7 | 0.00 | 0.00 | 0.00 | 88 | 1016.5 |
| 20260507104552 | 57 | 0 | 0.0 | 1.7 | 0.00 | 0.00 | 0.00 | 88 | 1016.6 |
| 20260507103055 | 57 | 140 | 0.9 | 2.6 | 0.00 | 0.00 | 0.00 | 88 | 1016.7 |
| 20260507101550 | 57 | 140 | 1.7 | 3.5 | 0.00 | 0.00 | 0.00 | 88 | 1016.7 |
| 20260507100054 | 57 | 139 | 1.7 | 4.3 | 0.00 | 0.00 | 0.00 | 87 | 1016.8 |
| 20260507094600 | 57 | 141 | 1.7 | 4.3 | 0.00 | 0.00 | 0.00 | 87 | 1016.9 |
| 20260507093056 | 58 | 155 | 0.9 | 4.3 | 0.00 | 0.00 | 0.00 | 87 | 1017.0 |
| 20260507091557 | 58 | 155 | 1.7 | 5.2 | 0.00 | 0.00 | 0.00 | 87 | 1017.1 |
| 20260507090051 | 58 | 159 | 1.7 | 4.3 | 0.00 | 0.00 | 0.00 | 87 | 1017.2 |
| 20260507084557 | 58 | 159 | 0.9 | 3.5 | 0.00 | 0.00 | 0.00 | 87 | 1017.4 |
| 20260507083053 | 58 | 160 | 0.9 | 4.3 | 0.00 | 0.00 | 0.00 | 87 | 1017.5 |
| 20260507081555 | 58 | 161 | 1.7 | 4.3 | 0.00 | 0.00 | 0.00 | 87 | 1017.6 |
| 20260507080056 | 58 | 161 | 2.6 | 5.2 | 0.00 | 0.00 | 0.00 | 86 | 1017.7 |
| 20260507074557 | 58 | 163 | 1.7 | 4.3 | 0.00 | 0.00 | 0.00 | 86 | 1017.6 |
| 20260507073102 | 58 | 163 | 1.7 | 4.3 | 0.00 | 0.00 | 0.00 | 86 | 1017.8 |
| 20260507071553 | 58 | 167 | 2.6 | 5.2 | 0.00 | 0.00 | 0.00 | 85 | 1017.8 |
| 20260507070057 | 59 | 212 | 0.9 | 3.5 | 0.00 | 0.00 | 0.00 | 85 | 1017.9 |
| 20260507064557 | 59 | 217 | 1.7 | 4.3 | 0.00 | 0.00 | 0.00 | 85 | 1017.8 |
| 20260507063100 | 59 | 290 | 0.9 | 1.7 | 0.00 | 0.00 | 0.00 | 85 | 1017.9 |
| 20260507061553 | 59 | 0 | 0.0 | 1.7 | 0.00 | 0.00 | 0.00 | 85 | 1017.9 |
| 20260507060056 | 59 | 0 | 0.0 | 1.7 | 0.00 | 0.00 | 0.00 | 85 | 1018.0 |
| 20260507054557 | 59 | 0 | 0.0 | 2.6 | 0.00 | 0.00 | 0.00 | 85 | 1018.1 |
| 20260507053116 | 59 | 290 | 0.0 | 1.7 | 0.00 | 0.00 | 0.00 | 84 | 1018.1 |
| 20260507051558 | 59 | 0 | 0.0 | 1.7 | 0.00 | 0.00 | 0.00 | 83 | 1018.0 |
| 20260507050058 | 60 | 0 | 0.0 | 1.7 | 0.00 | 0.00 | 0.00 | 82 | 1017.8 |
| 20260507044630 | 60 | 291 | 0.9 | 2.6 | 0.00 | 0.00 | 0.00 | 83 | 1017.9 |
| 20260507043053 | 60 | 294 | 0.0 | 1.7 | 0.00 | 0.00 | 0.00 | 82 | 1017.9 |
| 20260507041552 | 61 | 294 | 0.9 | 3.5 | 0.00 | 0.00 | 0.00 | 81 | 1017.9 |
| 20260507040050 | 61 | 291 | 1.7 | 6.1 | 0.00 | 0.00 | 0.00 | 81 | 1017.8 |
| 20260507034601 | 61 | 289 | 1.7 | 5.2 | 0.00 | 0.00 | 0.00 | 82 | 1017.7 |
| 20260507033105 | 61 | 288 | 0.9 | 4.3 | 0.00 | 0.00 | 0.00 | 83 | 1017.6 |
| 20260507031600 | 61 | 301 | 2.6 | 4.3 | 0.00 | 0.00 | 0.00 | 82 | 1017.4 |
| 20260507030108 | 62 | 286 | 1.7 | 7.0 | 0.00 | 0.00 | 0.00 | 82 | 1017.3 |
| 20260507024609 | 62 | 236 | 0.0 | 3.5 | 0.00 | 0.00 | 0.00 | 82 | 1017.0 |
| 20260507023051 | 62 | 245 | 1.7 | 5.2 | 0.00 | 0.00 | 0.00 | 82 | 1017.0 |
| 20260507021555 | 62 | 248 | 2.6 | 7.0 | 0.00 | 0.00 | 0.00 | 82 | 1016.8 |
| 20260507020059 | 63 | 256 | 3.5 | 7.8 | 0.00 | 0.00 | 0.00 | 82 | 1016.7 |
| 20260507014559 | 64 | 238 | 5.2 | 9.6 | 0.00 | 0.00 | 0.00 | 79 | 1016.6 |
| 20260507013100 | 66 | 261 | 5.2 | 8.7 | 0.00 | 0.00 | 0.00 | 75 | 1016.7 |
| 20260507011552 | 66 | 261 | 6.1 | 11.3 | 0.00 | 0.00 | 0.00 | 74 | 1016.7 |
| 20260507010049 | 67 | 263 | 5.2 | 12.2 | 0.00 | 0.00 | 0.00 | 73 | 1016.5 |
| 20260507004552 | 66 | 360 | 6.1 | 12.2 | 0.00 | 0.00 | 0.00 | 72 | 1016.5 |
| 20260507003051 | 66 | 259 | 5.2 | 13.0 | 0.00 | 0.00 | 0.00 | 75 | 1016.4 |
| 20260507001556 | 67 | 253 | 5.2 | 11.3 | 0.00 | 0.00 | 0.00 | 75 | 1016.4 |
| 20260507000053 | 67 | 260 | 5.2 | 10.4 | 0.00 | 0.00 | 0.00 | 73 | 1016.2 |
| 20260506234558 | 67 | 262 | 5.2 | 12.2 | 0.00 | 0.00 | 0.00 | 74 | 1016.2 |
| 20260506233058 | 66 | 252 | 6.1 | 12.2 | 0.00 | 0.00 | 0.00 | 75 | 1016.2 |
| 20260506231555 | 66 | 360 | 6.1 | 12.2 | 0.00 | 0.00 | 0.00 | 75 | 1016.4 |
| 20260506230052 | 66 | 260 | 7.8 | 13.0 | 0.00 | 0.00 | 0.00 | 75 | 1016.6 |
| 20260506224559 | 66 | 252 | 7.8 | 14.8 | 0.00 | 0.01 | 0.00 | 74 | 1016.6 |
| 20260506223050 | 66 | 223 | 7.8 | 14.8 | 0.00 | 0.01 | 0.00 | 74 | 1016.8 |
| 20260506221551 | 67 | 242 | 7.8 | 14.8 | 0.00 | 0.01 | 0.00 | 73 | 1016.9 |
| 20260506220054 | 67 | 232 | 7.0 | 14.8 | 0.00 | 0.01 | 0.00 | 73 | 1017.1 |
| 20260506214550 | 67 | 261 | 7.8 | 15.6 | 0.00 | 0.01 | 0.00 | 74 | 1017.3 |
| 20260506213053 | 66 | 279 | 8.7 | 13.9 | 0.00 | 0.01 | 0.00 | 74 | 1017.3 |
| 20260506211552 | 66 | 265 | 7.8 | 14.8 | 0.00 | 0.01 | 0.00 | 73 | 1017.5 |
| 20260506210054 | 66 | 273 | 8.7 | 14.8 | 0.00 | 0.01 | 0.00 | 73 | 1017.5 |
| 20260506204549 | 67 | 360 | 6.1 | 14.8 | 0.00 | 0.01 | 0.00 | 72 | 1017.7 |